Year,Month,Day,Hour,Minute,Value (Times are PST for temperature in C)
2012,08,04,00,00,19.10
2012,08,04,00,01,19.20
2012,08,04,00,02,19.10
2012,08,04,00,03,19.10
2012,08,04,00,04,19.10
2012,08,04,00,05,19.10
2012,08,04,00,06,19.10
2012,08,04,00,07,19.10
2012,08,04,00,08,19.10
2012,08,04,00,09,19.10
2012,08,04,00,10,19.10
2012,08,04,00,11,19.10
2012,08,04,00,12,19.10
2012,08,04,00,13,19.10
2012,08,04,00,14,19.10
2012,08,04,00,15,19.20
2012,08,04,00,16,19.20
2012,08,04,00,17,19.20
2012,08,04,00,18,19.20
2012,08,04,00,19,19.20
2012,08,04,00,20,19.20
2012,08,04,00,21,19.20
2012,08,04,00,22,19.20
2012,08,04,00,23,19.20
2012,08,04,00,24,19.20
2012,08,04,00,25,19.20
2012,08,04,00,26,19.20
2012,08,04,00,27,19.20
2012,08,04,00,28,19.20
2012,08,04,00,29,19.20
2012,08,04,00,30,19.20
2012,08,04,00,31,19.20
2012,08,04,00,32,19.20
2012,08,04,00,33,19.20
2012,08,04,00,34,19.10
2012,08,04,00,35,19.10
2012,08,04,00,36,19.10
2012,08,04,00,37,19.10
2012,08,04,00,38,19.00
2012,08,04,00,39,18.90
2012,08,04,00,40,18.90
2012,08,04,00,41,18.80
2012,08,04,00,42,18.80
2012,08,04,00,43,18.80
2012,08,04,00,44,18.70
2012,08,04,00,45,18.70
2012,08,04,00,46,18.60
2012,08,04,00,47,18.60
2012,08,04,00,48,18.60
2012,08,04,00,49,18.50
2012,08,04,00,50,18.50
2012,08,04,00,51,18.50
2012,08,04,00,52,18.50
2012,08,04,00,53,18.40
2012,08,04,00,54,18.40
2012,08,04,00,55,18.40
2012,08,04,00,56,18.30
2012,08,04,00,57,18.30
2012,08,04,00,58,18.30
2012,08,04,00,59,18.30
2012,08,04,01,00,18.30
2012,08,04,01,01,18.30
2012,08,04,01,02,18.30
2012,08,04,01,03,18.30
2012,08,04,01,04,18.30
2012,08,04,01,05,18.30
2012,08,04,01,06,18.30
2012,08,04,01,07,18.30
2012,08,04,01,08,18.30
2012,08,04,01,09,18.30
2012,08,04,01,10,18.30
2012,08,04,01,11,18.30
2012,08,04,01,12,18.30
2012,08,04,01,13,18.30
2012,08,04,01,14,18.30
2012,08,04,01,15,18.30
2012,08,04,01,16,18.30
2012,08,04,01,17,18.30
2012,08,04,01,18,18.30
2012,08,04,01,19,18.20
2012,08,04,01,20,18.30
2012,08,04,01,21,18.20
2012,08,04,01,22,18.20
2012,08,04,01,23,18.20
2012,08,04,01,24,18.20
2012,08,04,01,25,18.20
2012,08,04,01,26,18.20
2012,08,04,01,27,18.20
2012,08,04,01,28,18.20
2012,08,04,01,29,18.30
2012,08,04,01,30,18.30
2012,08,04,01,31,18.30
2012,08,04,01,32,18.30
2012,08,04,01,33,18.30
2012,08,04,01,34,18.30
2012,08,04,01,35,18.30
2012,08,04,01,36,18.30
2012,08,04,01,37,18.30
2012,08,04,01,38,18.30
2012,08,04,01,39,18.30
2012,08,04,01,40,18.30
2012,08,04,01,41,18.30
2012,08,04,01,42,18.30
2012,08,04,01,43,18.30
2012,08,04,01,44,18.30
2012,08,04,01,45,18.30
2012,08,04,01,46,18.30
2012,08,04,01,47,18.30
2012,08,04,01,48,18.30
2012,08,04,01,49,18.30
2012,08,04,01,50,18.30
2012,08,04,01,51,18.30
2012,08,04,01,52,18.30
2012,08,04,01,53,18.30
2012,08,04,01,54,18.30
2012,08,04,01,55,18.30
2012,08,04,01,56,18.20
2012,08,04,01,57,18.20
2012,08,04,01,58,18.20
2012,08,04,01,59,18.20
2012,08,04,02,00,18.20
2012,08,04,02,01,18.20
2012,08,04,02,02,18.20
2012,08,04,02,03,18.20
2012,08,04,02,04,18.10
2012,08,04,02,05,18.10
2012,08,04,02,06,18.10
2012,08,04,02,07,18.10
2012,08,04,02,08,18.10
2012,08,04,02,09,18.10
2012,08,04,02,10,18.10
2012,08,04,02,11,18.00
2012,08,04,02,12,18.00
2012,08,04,02,13,18.00
2012,08,04,02,14,17.90
2012,08,04,02,15,17.90
2012,08,04,02,16,17.80
2012,08,04,02,17,17.70
2012,08,04,02,18,17.60
2012,08,04,02,19,17.50
2012,08,04,02,20,17.30
2012,08,04,02,21,17.30
2012,08,04,02,22,17.20
2012,08,04,02,23,17.10
2012,08,04,02,24,17.10
2012,08,04,02,25,17.00
2012,08,04,02,26,16.90
2012,08,04,02,27,16.90
2012,08,04,02,28,16.80
2012,08,04,02,29,16.70
2012,08,04,02,30,16.60
2012,08,04,02,31,16.50
2012,08,04,02,32,16.40
2012,08,04,02,33,16.30
2012,08,04,02,34,16.30
2012,08,04,02,35,16.20
2012,08,04,02,36,16.20
2012,08,04,02,37,16.10
2012,08,04,02,38,16.00
2012,08,04,02,39,16.00
2012,08,04,02,40,15.90
2012,08,04,02,41,15.90
2012,08,04,02,42,15.80
2012,08,04,02,43,15.80
2012,08,04,02,44,15.80
2012,08,04,02,45,15.80
2012,08,04,02,46,15.70
2012,08,04,02,47,15.70
2012,08,04,02,48,15.70
2012,08,04,02,49,15.70
2012,08,04,02,50,15.70
2012,08,04,02,51,15.70
2012,08,04,02,52,15.70
2012,08,04,02,53,15.70
2012,08,04,02,54,15.70
2012,08,04,02,55,15.70
2012,08,04,02,56,15.70
2012,08,04,02,57,15.70
2012,08,04,02,58,15.70
2012,08,04,02,59,15.80
2012,08,04,03,00,15.80
2012,08,04,03,01,15.80
2012,08,04,03,02,15.80
2012,08,04,03,03,15.90
2012,08,04,03,04,15.90
2012,08,04,03,05,15.90
2012,08,04,03,06,15.90
2012,08,04,03,07,16.00
2012,08,04,03,08,16.00
2012,08,04,03,09,16.10
2012,08,04,03,10,16.10
2012,08,04,03,11,16.10
2012,08,04,03,12,16.10
2012,08,04,03,13,16.20
2012,08,04,03,14,16.20
2012,08,04,03,15,16.20
2012,08,04,03,16,16.20
2012,08,04,03,17,16.20
2012,08,04,03,18,16.20
2012,08,04,03,19,16.20
2012,08,04,03,20,16.20
2012,08,04,03,21,16.20
2012,08,04,03,22,16.20
2012,08,04,03,23,16.20
2012,08,04,03,24,16.20
2012,08,04,03,25,16.20
2012,08,04,03,26,16.20
2012,08,04,03,27,16.20
2012,08,04,03,28,16.20
2012,08,04,03,29,16.20
2012,08,04,03,30,16.20
2012,08,04,03,31,16.20
2012,08,04,03,32,16.20
2012,08,04,03,33,16.20
2012,08,04,03,34,16.20
2012,08,04,03,35,16.30
2012,08,04,03,36,16.30
2012,08,04,03,37,16.30
2012,08,04,03,38,16.30
2012,08,04,03,39,16.30
2012,08,04,03,40,16.30
2012,08,04,03,41,16.30
2012,08,04,03,42,16.30
2012,08,04,03,43,16.30
2012,08,04,03,44,16.30
2012,08,04,03,45,16.30
2012,08,04,03,46,16.30
2012,08,04,03,47,16.30
2012,08,04,03,48,16.30
2012,08,04,03,49,16.30
2012,08,04,03,50,16.30
2012,08,04,03,51,16.30
2012,08,04,03,52,16.30
2012,08,04,03,53,16.30
2012,08,04,03,54,16.30
2012,08,04,03,55,16.30
2012,08,04,03,56,16.30
2012,08,04,03,57,16.30
2012,08,04,03,58,16.30
2012,08,04,03,59,16.30
2012,08,04,04,00,16.30
2012,08,04,04,01,16.30
2012,08,04,04,02,16.30
2012,08,04,04,03,16.30
2012,08,04,04,04,16.30
2012,08,04,04,05,16.30
2012,08,04,04,06,16.30
2012,08,04,04,07,16.30
2012,08,04,04,08,16.30
2012,08,04,04,09,16.30
2012,08,04,04,10,16.40
2012,08,04,04,11,16.40
2012,08,04,04,12,16.40
2012,08,04,04,13,16.40
2012,08,04,04,14,16.40
2012,08,04,04,15,16.40
2012,08,04,04,16,16.50
2012,08,04,04,17,16.50
2012,08,04,04,18,16.60
2012,08,04,04,19,16.60
2012,08,04,04,20,16.60
2012,08,04,04,21,16.70
2012,08,04,04,22,16.70
2012,08,04,04,23,16.70
2012,08,04,04,24,16.70
2012,08,04,04,25,16.80
2012,08,04,04,26,16.80
2012,08,04,04,27,16.80
2012,08,04,04,28,16.80
2012,08,04,04,29,16.80
2012,08,04,04,30,16.80
2012,08,04,04,31,16.80
2012,08,04,04,32,16.90
2012,08,04,04,33,16.90
2012,08,04,04,34,16.90
2012,08,04,04,35,17.00
2012,08,04,04,36,17.00
2012,08,04,04,37,17.10
2012,08,04,04,38,17.20
2012,08,04,04,39,17.30
2012,08,04,04,40,17.30
2012,08,04,04,41,17.30
2012,08,04,04,42,17.40
2012,08,04,04,43,17.40
2012,08,04,04,44,17.40
2012,08,04,04,45,17.40
2012,08,04,04,46,17.50
2012,08,04,04,47,17.50
2012,08,04,04,48,17.50
2012,08,04,04,49,17.50
2012,08,04,04,50,17.50
2012,08,04,04,51,17.50
2012,08,04,04,52,17.50
2012,08,04,04,53,17.50
2012,08,04,04,54,17.50
2012,08,04,04,55,17.40
2012,08,04,04,56,17.40
2012,08,04,04,57,17.40
2012,08,04,04,58,17.40
2012,08,04,04,59,17.40
2012,08,04,05,00,17.40
2012,08,04,05,01,17.30
2012,08,04,05,02,17.30
2012,08,04,05,03,17.30
2012,08,04,05,04,17.20
2012,08,04,05,05,17.20
2012,08,04,05,06,17.10
2012,08,04,05,07,17.00
2012,08,04,05,08,17.00
2012,08,04,05,09,17.00
2012,08,04,05,10,17.00
2012,08,04,05,11,16.80
2012,08,04,05,12,16.80
2012,08,04,05,13,16.80
2012,08,04,05,14,16.80
2012,08,04,05,15,16.80
2012,08,04,05,16,16.70
2012,08,04,05,17,16.70
2012,08,04,05,18,16.70
2012,08,04,05,19,16.70
2012,08,04,05,20,16.70
2012,08,04,05,21,16.70
2012,08,04,05,22,16.70
2012,08,04,05,23,16.70
2012,08,04,05,24,16.70
2012,08,04,05,25,16.60
2012,08,04,05,26,16.60
2012,08,04,05,27,16.60
2012,08,04,05,28,16.60
2012,08,04,05,29,16.60
2012,08,04,05,30,16.60
2012,08,04,05,31,16.60
2012,08,04,05,32,16.60
2012,08,04,05,33,16.60
2012,08,04,05,34,16.60
2012,08,04,05,35,16.60
2012,08,04,05,36,16.50
2012,08,04,05,37,16.50
2012,08,04,05,38,16.50
2012,08,04,05,39,16.50
2012,08,04,05,40,16.50
2012,08,04,05,41,16.50
2012,08,04,05,42,16.50
2012,08,04,05,43,16.50
2012,08,04,05,44,16.40
2012,08,04,05,45,16.40
2012,08,04,05,46,16.40
2012,08,04,05,47,16.40
2012,08,04,05,48,16.40
2012,08,04,05,49,16.40
2012,08,04,05,50,16.30
2012,08,04,05,51,16.30
2012,08,04,05,52,16.30
2012,08,04,05,53,16.30
2012,08,04,05,54,16.30
2012,08,04,05,55,16.30
2012,08,04,05,56,16.30
2012,08,04,05,57,16.20
2012,08,04,05,58,16.20
2012,08,04,05,59,16.20
2012,08,04,06,00,16.20
2012,08,04,06,01,16.20
2012,08,04,06,02,16.20
2012,08,04,06,03,16.20
2012,08,04,06,04,16.20
2012,08,04,06,05,16.10
2012,08,04,06,06,16.10
2012,08,04,06,07,16.10
2012,08,04,06,08,16.10
2012,08,04,06,09,16.10
2012,08,04,06,10,16.10
2012,08,04,06,11,16.10
2012,08,04,06,12,16.10
2012,08,04,06,13,16.10
2012,08,04,06,14,16.10
2012,08,04,06,15,16.10
2012,08,04,06,16,16.10
2012,08,04,06,17,16.10
2012,08,04,06,18,16.10
2012,08,04,06,19,16.00
2012,08,04,06,20,16.00
2012,08,04,06,21,16.00
2012,08,04,06,22,16.10
2012,08,04,06,23,16.10
2012,08,04,06,24,16.10
2012,08,04,06,25,16.10
2012,08,04,06,26,16.10
2012,08,04,06,27,16.10
2012,08,04,06,28,16.10
2012,08,04,06,29,16.10
2012,08,04,06,30,16.20
2012,08,04,06,31,16.20
2012,08,04,06,32,16.20
2012,08,04,06,33,16.20
2012,08,04,06,34,16.20
2012,08,04,06,35,16.30
2012,08,04,06,36,16.30
2012,08,04,06,37,16.40
2012,08,04,06,38,16.40
2012,08,04,06,39,16.40
2012,08,04,06,40,16.40
2012,08,04,06,41,16.40
2012,08,04,06,42,16.50
2012,08,04,06,43,16.50
2012,08,04,06,44,16.50
2012,08,04,06,45,16.60
2012,08,04,06,46,16.60
2012,08,04,06,47,16.60
2012,08,04,06,48,16.60
2012,08,04,06,49,16.70
2012,08,04,06,50,16.70
2012,08,04,06,51,16.70
2012,08,04,06,52,16.80
2012,08,04,06,53,16.80
2012,08,04,06,54,16.80
2012,08,04,06,55,16.90
2012,08,04,06,56,17.00
2012,08,04,06,57,17.00
2012,08,04,06,58,17.10
2012,08,04,06,59,17.10
2012,08,04,07,00,17.10
2012,08,04,07,01,17.20
2012,08,04,07,02,17.20
2012,08,04,07,03,17.20
2012,08,04,07,04,17.20
2012,08,04,07,05,17.20
2012,08,04,07,06,17.20
2012,08,04,07,07,17.20
2012,08,04,07,08,17.30
2012,08,04,07,09,17.30
2012,08,04,07,10,17.30
2012,08,04,07,11,17.30
2012,08,04,07,12,17.30
2012,08,04,07,13,17.30
2012,08,04,07,14,17.40
2012,08,04,07,15,17.40
2012,08,04,07,16,17.40
2012,08,04,07,17,17.40
2012,08,04,07,18,17.40
2012,08,04,07,19,17.40
2012,08,04,07,20,17.40
2012,08,04,07,21,17.40
2012,08,04,07,22,17.40
2012,08,04,07,23,17.40
2012,08,04,07,24,17.40
2012,08,04,07,25,17.40
2012,08,04,07,26,17.40
2012,08,04,07,27,17.40
2012,08,04,07,28,17.40
2012,08,04,07,29,17.40
2012,08,04,07,30,17.40
2012,08,04,07,31,17.40
2012,08,04,07,32,17.40
2012,08,04,07,33,17.40
2012,08,04,07,34,17.40
2012,08,04,07,35,17.40
2012,08,04,07,36,17.40
2012,08,04,07,37,17.40
2012,08,04,07,38,17.40
2012,08,04,07,39,17.50
2012,08,04,07,40,17.50
2012,08,04,07,41,17.50
2012,08,04,07,42,17.50
2012,08,04,07,43,17.50
2012,08,04,07,44,17.60
2012,08,04,07,45,17.60
2012,08,04,07,46,17.60
2012,08,04,07,47,17.60
2012,08,04,07,48,17.60
2012,08,04,07,49,17.60
2012,08,04,07,50,17.60
2012,08,04,07,51,17.60
2012,08,04,07,52,17.60
2012,08,04,07,53,17.70
2012,08,04,07,54,17.70
2012,08,04,07,55,17.70
2012,08,04,07,56,17.80
2012,08,04,07,57,17.80
2012,08,04,07,58,17.80
2012,08,04,07,59,17.80
2012,08,04,08,00,17.80
2012,08,04,08,01,17.80
2012,08,04,08,02,17.80
2012,08,04,08,03,17.80
2012,08,04,08,04,17.80
2012,08,04,08,05,17.80
2012,08,04,08,06,17.90
2012,08,04,08,07,17.90
2012,08,04,08,08,17.90
2012,08,04,08,09,18.00
2012,08,04,08,10,18.00
2012,08,04,08,11,18.10
2012,08,04,08,12,18.20
2012,08,04,08,13,18.30
2012,08,04,08,14,18.30
2012,08,04,08,15,18.40
2012,08,04,08,16,18.50
2012,08,04,08,17,18.50
2012,08,04,08,18,18.60
2012,08,04,08,19,18.70
2012,08,04,08,20,18.80
2012,08,04,08,21,18.80
2012,08,04,08,22,18.90
2012,08,04,08,23,19.00
2012,08,04,08,24,19.00
2012,08,04,08,25,19.10
2012,08,04,08,26,19.20
2012,08,04,08,27,19.30
2012,08,04,08,28,19.40
2012,08,04,08,29,19.60
2012,08,04,08,30,19.70
2012,08,04,08,31,19.80
2012,08,04,08,32,19.90
2012,08,04,08,33,20.00
2012,08,04,08,34,20.10
2012,08,04,08,35,20.20
2012,08,04,08,36,20.30
2012,08,04,08,37,20.50
2012,08,04,08,38,20.60
2012,08,04,08,39,20.70
2012,08,04,08,40,20.90
2012,08,04,08,41,21.00
2012,08,04,08,42,21.10
2012,08,04,08,43,21.20
2012,08,04,08,44,21.30
2012,08,04,08,45,21.30
2012,08,04,08,46,21.40
2012,08,04,08,47,21.40
2012,08,04,08,48,21.50
2012,08,04,08,49,21.50
2012,08,04,08,50,21.60
2012,08,04,08,51,21.70
2012,08,04,08,52,21.70
2012,08,04,08,53,21.80
2012,08,04,08,54,21.80
2012,08,04,08,55,21.90
2012,08,04,08,56,21.90
2012,08,04,08,57,21.90
2012,08,04,08,58,21.90
2012,08,04,08,59,21.90
2012,08,04,09,00,21.90
2012,08,04,09,01,21.90
2012,08,04,09,02,21.80
2012,08,04,09,03,21.90
2012,08,04,09,04,21.80
2012,08,04,09,05,21.80
2012,08,04,09,06,21.80
2012,08,04,09,07,21.80
2012,08,04,09,08,21.80
2012,08,04,09,09,21.90
2012,08,04,09,10,21.90
2012,08,04,09,11,22.00
2012,08,04,09,12,22.00
2012,08,04,09,13,22.10
2012,08,04,09,14,22.10
2012,08,04,09,15,22.00
2012,08,04,09,16,22.00
2012,08,04,09,17,22.00
2012,08,04,09,18,21.90
2012,08,04,09,19,21.90
2012,08,04,09,20,21.90
2012,08,04,09,21,21.90
2012,08,04,09,22,21.90
2012,08,04,09,23,21.90
2012,08,04,09,24,21.90
2012,08,04,09,25,22.00
2012,08,04,09,26,22.00
2012,08,04,09,27,22.00
2012,08,04,09,28,22.00
2012,08,04,09,29,22.00
2012,08,04,09,30,22.00
2012,08,04,09,31,22.10
2012,08,04,09,32,22.10
2012,08,04,09,33,22.10
2012,08,04,09,34,22.20
2012,08,04,09,35,22.20
2012,08,04,09,36,22.30
2012,08,04,09,37,22.30
2012,08,04,09,38,22.30
2012,08,04,09,39,22.30
2012,08,04,09,40,22.30
2012,08,04,09,41,22.30
2012,08,04,09,42,22.30
2012,08,04,09,43,22.30
2012,08,04,09,44,22.30
2012,08,04,09,45,22.30
2012,08,04,09,46,22.40
2012,08,04,09,47,22.40
2012,08,04,09,48,22.40
2012,08,04,09,49,22.50
2012,08,04,09,50,22.50
2012,08,04,09,51,22.40
2012,08,04,09,52,22.40
2012,08,04,09,53,22.50
2012,08,04,09,54,22.50
2012,08,04,09,55,22.50
2012,08,04,09,56,22.50
2012,08,04,09,57,22.50
2012,08,04,09,58,22.50
2012,08,04,09,59,22.50
2012,08,04,10,00,22.60
2012,08,04,10,01,22.60
2012,08,04,10,02,22.60
2012,08,04,10,03,22.60
2012,08,04,10,04,22.60
2012,08,04,10,05,22.50
2012,08,04,10,06,22.50
2012,08,04,10,07,22.60
2012,08,04,10,08,22.60
2012,08,04,10,09,22.70
2012,08,04,10,10,22.80
2012,08,04,10,11,22.80
2012,08,04,10,12,22.90
2012,08,04,10,13,22.90
2012,08,04,10,14,22.90
2012,08,04,10,15,22.90
2012,08,04,10,16,22.90
2012,08,04,10,17,22.90
2012,08,04,10,18,22.90
2012,08,04,10,19,22.90
2012,08,04,10,20,23.00
2012,08,04,10,21,23.00
2012,08,04,10,22,23.10
2012,08,04,10,23,23.10
2012,08,04,10,24,23.20
2012,08,04,10,25,23.30
2012,08,04,10,26,23.40
2012,08,04,10,27,23.50
2012,08,04,10,28,23.60
2012,08,04,10,29,23.60
2012,08,04,10,30,23.70
2012,08,04,10,31,23.70
2012,08,04,10,32,23.70
2012,08,04,10,33,23.70
2012,08,04,10,34,23.70
2012,08,04,10,35,23.70
2012,08,04,10,36,23.70
2012,08,04,10,37,23.70
2012,08,04,10,38,23.70
2012,08,04,10,39,23.70
2012,08,04,10,40,23.70
2012,08,04,10,41,23.70
2012,08,04,10,42,23.70
2012,08,04,10,43,23.80
2012,08,04,10,44,23.80
2012,08,04,10,45,23.80
2012,08,04,10,46,23.80
2012,08,04,10,47,23.70
2012,08,04,10,48,23.70
2012,08,04,10,49,23.70
2012,08,04,10,50,23.80
2012,08,04,10,51,23.70
2012,08,04,10,52,23.80
2012,08,04,10,53,23.80
2012,08,04,10,54,23.90
2012,08,04,10,55,24.00
2012,08,04,10,56,24.10
2012,08,04,10,57,24.20
2012,08,04,10,58,24.30
2012,08,04,10,59,24.40
2012,08,04,11,00,24.50
2012,08,04,11,01,24.60
2012,08,04,11,02,24.70
2012,08,04,11,03,24.70
2012,08,04,11,04,24.80
2012,08,04,11,05,24.80
2012,08,04,11,06,24.80
2012,08,04,11,07,24.70
2012,08,04,11,08,24.70
2012,08,04,11,09,24.70
2012,08,04,11,10,24.70
2012,08,04,11,11,24.70
2012,08,04,11,12,24.70
2012,08,04,11,13,24.80
2012,08,04,11,14,24.80
2012,08,04,11,15,24.80
2012,08,04,11,16,24.80
2012,08,04,11,17,24.70
2012,08,04,11,18,24.70
2012,08,04,11,19,24.70
2012,08,04,11,20,24.70
2012,08,04,11,21,24.80
2012,08,04,11,22,24.80
2012,08,04,11,23,24.70
2012,08,04,11,24,24.80
2012,08,04,11,25,24.80
2012,08,04,11,26,24.90
2012,08,04,11,27,25.00
2012,08,04,11,28,24.90
2012,08,04,11,29,24.90
2012,08,04,11,30,24.90
2012,08,04,11,31,25.00
2012,08,04,11,32,25.10
2012,08,04,11,33,25.20
2012,08,04,11,34,25.30
2012,08,04,11,35,25.40
2012,08,04,11,36,25.50
2012,08,04,11,37,25.60
2012,08,04,11,38,25.60
2012,08,04,11,39,25.60
2012,08,04,11,40,25.50
2012,08,04,11,41,25.40
2012,08,04,11,42,25.30
2012,08,04,11,43,25.30
2012,08,04,11,44,25.20
2012,08,04,11,45,25.30
2012,08,04,11,46,25.30
2012,08,04,11,47,25.40
2012,08,04,11,48,25.40
2012,08,04,11,49,25.50
2012,08,04,11,50,25.50
2012,08,04,11,51,25.50
2012,08,04,11,52,25.50
2012,08,04,11,53,25.60
2012,08,04,11,54,25.50
2012,08,04,11,55,25.50
2012,08,04,11,56,25.40
2012,08,04,11,57,25.30
2012,08,04,11,58,25.30
2012,08,04,11,59,25.30
2012,08,04,12,00,25.30
2012,08,04,12,01,25.30
2012,08,04,12,02,25.40
2012,08,04,12,03,25.40
2012,08,04,12,04,25.50
2012,08,04,12,05,25.60
2012,08,04,12,06,25.70
2012,08,04,12,07,25.80
2012,08,04,12,08,26.00
2012,08,04,12,09,26.00
2012,08,04,12,10,26.10
2012,08,04,12,11,26.20
2012,08,04,12,12,26.20
2012,08,04,12,13,26.20
2012,08,04,12,14,26.20
2012,08,04,12,15,26.20
2012,08,04,12,16,26.20
2012,08,04,12,17,26.20
2012,08,04,12,18,26.30
2012,08,04,12,19,26.30
2012,08,04,12,20,26.30
2012,08,04,12,21,26.30
2012,08,04,12,22,26.20
2012,08,04,12,23,26.20
2012,08,04,12,24,26.20
2012,08,04,12,25,26.20
2012,08,04,12,26,26.20
2012,08,04,12,27,26.20
2012,08,04,12,28,26.30
2012,08,04,12,29,26.30
2012,08,04,12,30,26.30
2012,08,04,12,31,26.30
2012,08,04,12,32,26.30
2012,08,04,12,33,26.30
2012,08,04,12,34,26.30
2012,08,04,12,35,26.30
2012,08,04,12,36,26.30
2012,08,04,12,37,26.40
2012,08,04,12,38,26.40
2012,08,04,12,39,26.40
2012,08,04,12,40,26.40
2012,08,04,12,41,26.50
2012,08,04,12,42,26.50
2012,08,04,12,43,26.60
2012,08,04,12,44,26.60
2012,08,04,12,45,26.60
2012,08,04,12,46,26.60
2012,08,04,12,47,26.70
2012,08,04,12,48,26.70
2012,08,04,12,49,26.80
2012,08,04,12,50,26.80
2012,08,04,12,51,26.90
2012,08,04,12,52,27.00
2012,08,04,12,53,27.00
2012,08,04,12,54,27.10
2012,08,04,12,55,27.20
2012,08,04,12,56,27.30
2012,08,04,12,57,27.30
2012,08,04,12,58,27.30
2012,08,04,12,59,27.30
2012,08,04,13,00,27.30
2012,08,04,13,01,27.30
2012,08,04,13,02,27.40
2012,08,04,13,03,27.40
2012,08,04,13,04,27.40
2012,08,04,13,05,27.40
2012,08,04,13,06,27.40
2012,08,04,13,07,27.40
2012,08,04,13,08,27.30
2012,08,04,13,09,27.30
2012,08,04,13,10,27.30
2012,08,04,13,11,27.30
2012,08,04,13,12,27.30
2012,08,04,13,13,27.30
2012,08,04,13,14,27.30
2012,08,04,13,15,27.30
2012,08,04,13,16,27.40
2012,08,04,13,17,27.40
2012,08,04,13,18,27.40
2012,08,04,13,19,27.40
2012,08,04,13,20,27.40
2012,08,04,13,21,27.50
2012,08,04,13,22,27.50
2012,08,04,13,23,27.50
2012,08,04,13,24,27.50
2012,08,04,13,25,27.60
2012,08,04,13,26,27.60
2012,08,04,13,27,27.60
2012,08,04,13,28,27.60
2012,08,04,13,29,27.60
2012,08,04,13,30,27.60
2012,08,04,13,31,27.60
2012,08,04,13,32,27.60
2012,08,04,13,33,27.60
2012,08,04,13,34,27.60
2012,08,04,13,35,27.60
2012,08,04,13,36,27.70
2012,08,04,13,37,27.80
2012,08,04,13,38,27.80
2012,08,04,13,39,27.80
2012,08,04,13,40,27.80
2012,08,04,13,41,27.90
2012,08,04,13,42,27.90
2012,08,04,13,43,28.00
2012,08,04,13,44,28.10
2012,08,04,13,45,28.10
2012,08,04,13,46,28.10
2012,08,04,13,47,28.00
2012,08,04,13,48,27.90
2012,08,04,13,49,27.80
2012,08,04,13,50,27.80
2012,08,04,13,51,27.90
2012,08,04,13,52,28.00
2012,08,04,13,53,28.10
2012,08,04,13,54,28.20
2012,08,04,13,55,28.20
2012,08,04,13,56,28.20
2012,08,04,13,57,28.30
2012,08,04,13,58,28.30
2012,08,04,13,59,28.30
2012,08,04,14,00,28.30
2012,08,04,14,01,28.30
2012,08,04,14,02,28.30
2012,08,04,14,03,28.30
2012,08,04,14,04,28.30
2012,08,04,14,05,28.30
2012,08,04,14,06,28.40
2012,08,04,14,07,28.40
2012,08,04,14,08,28.50
2012,08,04,14,09,28.50
2012,08,04,14,10,28.50
2012,08,04,14,11,28.50
2012,08,04,14,12,28.50
2012,08,04,14,13,28.50
2012,08,04,14,14,28.60
2012,08,04,14,15,28.70
2012,08,04,14,16,28.70
2012,08,04,14,17,28.60
2012,08,04,14,18,28.60
2012,08,04,14,19,28.70
2012,08,04,14,20,28.70
2012,08,04,14,21,28.70
2012,08,04,14,22,28.70
2012,08,04,14,23,28.80
2012,08,04,14,24,28.80
2012,08,04,14,25,28.80
2012,08,04,14,26,28.90
2012,08,04,14,27,28.90
2012,08,04,14,28,28.90
2012,08,04,14,29,29.00
2012,08,04,14,30,29.00
2012,08,04,14,31,29.10
2012,08,04,14,32,29.00
2012,08,04,14,33,28.90
2012,08,04,14,34,28.70
2012,08,04,14,35,28.50
2012,08,04,14,36,28.40
2012,08,04,14,37,28.20
2012,08,04,14,38,28.20
2012,08,04,14,39,28.10
2012,08,04,14,40,27.90
2012,08,04,14,41,27.80
2012,08,04,14,42,27.60
2012,08,04,14,43,27.40
2012,08,04,14,44,27.20
2012,08,04,14,45,27.00
2012,08,04,14,46,26.80
2012,08,04,14,47,26.70
2012,08,04,14,48,26.50
2012,08,04,14,49,26.30
2012,08,04,14,50,26.10
2012,08,04,14,51,25.90
2012,08,04,14,52,25.70
2012,08,04,14,53,25.60
2012,08,04,14,54,25.60
2012,08,04,14,55,25.50
2012,08,04,14,56,25.50
2012,08,04,14,57,25.60
2012,08,04,14,58,25.60
2012,08,04,14,59,25.70
2012,08,04,15,00,25.80
2012,08,04,15,01,25.90
2012,08,04,15,02,26.10
2012,08,04,15,03,26.50
2012,08,04,15,04,26.90
2012,08,04,15,05,27.30
2012,08,04,15,06,27.60
2012,08,04,15,07,28.00
2012,08,04,15,08,28.30
2012,08,04,15,09,28.50
2012,08,04,15,10,28.80
2012,08,04,15,11,28.90
2012,08,04,15,12,29.00
2012,08,04,15,13,29.10
2012,08,04,15,14,29.10
2012,08,04,15,15,29.00
2012,08,04,15,16,28.90
2012,08,04,15,17,28.90
2012,08,04,15,18,28.90
2012,08,04,15,19,28.90
2012,08,04,15,20,29.00
2012,08,04,15,21,29.00
2012,08,04,15,22,29.10
2012,08,04,15,23,29.20
2012,08,04,15,24,29.30
2012,08,04,15,25,29.40
2012,08,04,15,26,29.50
2012,08,04,15,27,29.50
2012,08,04,15,28,29.40
2012,08,04,15,29,29.40
2012,08,04,15,30,29.50
2012,08,04,15,31,29.50
2012,08,04,15,32,29.50
2012,08,04,15,33,29.40
2012,08,04,15,34,29.40
2012,08,04,15,35,29.30
2012,08,04,15,36,29.30
2012,08,04,15,37,29.30
2012,08,04,15,38,29.30
2012,08,04,15,39,29.30
2012,08,04,15,40,29.30
2012,08,04,15,41,29.40
2012,08,04,15,42,29.40
2012,08,04,15,43,29.40
2012,08,04,15,44,29.40
2012,08,04,15,45,29.30
2012,08,04,15,46,29.30
2012,08,04,15,47,29.30
2012,08,04,15,48,29.30
2012,08,04,15,49,29.30
2012,08,04,15,50,29.30
2012,08,04,15,51,29.40
2012,08,04,15,52,29.50
2012,08,04,15,53,29.60
2012,08,04,15,54,29.60
2012,08,04,15,55,29.70
2012,08,04,15,56,29.70
2012,08,04,15,57,29.70
2012,08,04,15,58,29.80
2012,08,04,15,59,29.80
2012,08,04,16,00,29.80
2012,08,04,16,01,29.70
2012,08,04,16,02,29.80
2012,08,04,16,03,29.80
2012,08,04,16,04,29.80
2012,08,04,16,05,29.80
2012,08,04,16,06,29.90
2012,08,04,16,07,29.80
2012,08,04,16,08,29.80
2012,08,04,16,09,29.80
2012,08,04,16,10,29.80
2012,08,04,16,11,29.80
2012,08,04,16,12,29.80
2012,08,04,16,13,29.80
2012,08,04,16,14,29.80
2012,08,04,16,15,29.80
2012,08,04,16,16,29.70
2012,08,04,16,17,29.70
2012,08,04,16,18,29.60
2012,08,04,16,19,29.60
2012,08,04,16,20,29.70
2012,08,04,16,21,29.70
2012,08,04,16,22,29.70
2012,08,04,16,23,29.70
2012,08,04,16,24,29.70
2012,08,04,16,25,29.70
2012,08,04,16,26,29.70
2012,08,04,16,27,29.80
2012,08,04,16,28,29.80
2012,08,04,16,29,29.90
2012,08,04,16,30,29.90
2012,08,04,16,31,29.90
2012,08,04,16,32,29.80
2012,08,04,16,33,29.80
2012,08,04,16,34,29.80
2012,08,04,16,35,29.80
2012,08,04,16,36,29.90
2012,08,04,16,37,29.90
2012,08,04,16,38,29.90
2012,08,04,16,39,30.00
2012,08,04,16,40,30.00
2012,08,04,16,41,30.10
2012,08,04,16,42,30.10
2012,08,04,16,43,30.10
2012,08,04,16,44,30.10
2012,08,04,16,45,30.20
2012,08,04,16,46,30.30
2012,08,04,16,47,30.30
2012,08,04,16,48,30.30
2012,08,04,16,49,30.30
2012,08,04,16,50,30.20
2012,08,04,16,51,30.10
2012,08,04,16,52,29.90
2012,08,04,16,53,29.60
2012,08,04,16,54,29.30
2012,08,04,16,55,28.80
2012,08,04,16,56,28.50
2012,08,04,16,57,28.10
2012,08,04,16,58,27.80
2012,08,04,16,59,27.50
2012,08,04,17,00,27.20
2012,08,04,17,01,27.00
2012,08,04,17,02,26.80
2012,08,04,17,03,26.60
2012,08,04,17,04,26.40
2012,08,04,17,05,26.20
2012,08,04,17,06,26.10
2012,08,04,17,07,25.90
2012,08,04,17,08,25.70
2012,08,04,17,09,25.50
2012,08,04,17,10,25.40
2012,08,04,17,11,25.20
2012,08,04,17,12,25.00
2012,08,04,17,13,24.80
2012,08,04,17,14,24.70
2012,08,04,17,15,24.70
2012,08,04,17,16,24.70
2012,08,04,17,17,24.70
2012,08,04,17,18,24.80
2012,08,04,17,19,24.90